User: anonymous   Login
Location: Unspecified
(0.0000°N, 0.0000°E)
Time: 06:22:17
(UTC+00:00)
Language:

DELFI C3 - Orbit

View from above orbital plane
View from above orbital plane
View from above satellite
View from above satellite

Ground track
Ground track

The orbit data is extracted from the following two-line orbital elements,

1 32789U 08021G   18267.69655503 +.00001745 +00000-0 +12275-3 0  9990
2 32789 097.5026 319.9468 0011271 323.5279 036.5179 15.06317330566662
Epoch (UTC): 24 September 2018 16:43:02
Eccentricity: 0.0011271
inclination: 97.5026°
perigee height: 539 km
apogee height: 555 km
right ascension of ascending node: 319.9468°
argument of perigee: 323.5279°
revolutions per day: 15.06317330
mean anomaly at epoch: 36.5179°
orbit number at epoch: 56666

The dashed part of the orbit path shows where the satellite is in the earth's shadow,  

DLR